User: anonymous   Login
Location: Unspecified
(0.0000°N, 0.0000°E)
Time: 00:04:17
(UTC+00:00)
Language:

N. Korean satellite - Orbit

View from above orbital plane
View from above orbital plane
View from above satellite
View from above satellite

Ground track
Ground track

The orbit data is extracted from the following two-line orbital elements,

1 39026U 12072A   19112.94192966 +.00001348 +00000-0 +51617-4 0  9992
2 39026 097.2119 117.9338 0036698 304.6700 055.1083 15.27663935352879
Epoch (UTC): 22 April 2019 22:36:22
Eccentricity: 0.0036698
inclination: 97.2119°
perigee height: 457 km
apogee height: 508 km
right ascension of ascending node: 117.9338°
argument of perigee: 304.6700°
revolutions per day: 15.27663935
mean anomaly at epoch: 55.1083°
orbit number at epoch: 35287

The dashed part of the orbit path shows where the satellite is in the earth's shadow,  

DLR